This is the latest recevied weather packets stored in our database for station/object N0RHA. If no packets are shown the sender has not sent any weather packets the latest 10 day(s).
| Time | Temp. | Humidity | Pressure | Rain* | Wind** | Luminosity | Snow |
|---|---|---|---|---|---|---|---|
| 1788144206 | 70° F | 56% | 769 mmHg | 0 in | - | 0 W/m² | - |
| 1788143906 | 70° F | 55% | 768.7 mmHg | 0 in | - | 0 W/m² | - |
| 1788143604 | 70° F | 53% | 768.5 mmHg | 0 in | - | 0 W/m² | - |
| 1788143300 | 70° F | 55% | 768.4 mmHg | 0 in | - | 0 W/m² | - |
| 1788142999 | 70° F | 55% | 768.6 mmHg | 0 in | - | 0 W/m² | - |
| 1788142694 | 71° F | 54% | 768.1 mmHg | 0 in | - | 0 W/m² | - |
| 1788142393 | 71° F | 53% | 768.3 mmHg | 0 in | - | 0 W/m² | - |
| 1788142090 | 71° F | 54% | 768.2 mmHg | 0 in | - | 0 W/m² | - |
| 1788141789 | 71° F | 54% | 768.3 mmHg | 0 in | - | 0 W/m² | - |
| 1788141484 | 71° F | 54% | 768.3 mmHg | 0 in | - | 0 W/m² | - |
| 1788141180 | 70° F | 55% | 768.2 mmHg | 0 in | - | 0 W/m² | - |
| 1788140879 | 70° F | 57% | 768.2 mmHg | 0 in | - | 0 W/m² | - |
| 1788140575 | 70° F | 57% | 768.1 mmHg | 0 in | - | 0 W/m² | - |
| 1788140271 | 70° F | 56% | 767.9 mmHg | 0 in | - | 0 W/m² | - |
| 1788139970 | 70° F | 56% | 767.9 mmHg | 0 in | - | 0 W/m² | - |
| 1788139665 | 71° F | 56% | 767.9 mmHg | 0 in | - | 1 W/m² | - |
| 1788139361 | 71° F | 56% | 767.8 mmHg | 0 in | - | 2 W/m² | - |
| 1788139059 | 71° F | 56% | 768 mmHg | 0 in | - | 4 W/m² | - |
| 1788138756 | 71° F | 55% | 767.8 mmHg | 0 in | - | 7 W/m² | - |
| 1788138451 | 72° F | 55% | 767.9 mmHg | 0 in | - | 10 W/m² | - |
| 1788138151 | 72° F | 54% | 767.8 mmHg | 0 in | - | 12 W/m² | - |
| 1788137846 | 72° F | 54% | 767.8 mmHg | 0 in | - | 16 W/m² | - |
| 1788137542 | 72° F | 54% | 768.1 mmHg | 0 in | - | 20 W/m² | - |
| 1788137237 | 73° F | 54% | 768.1 mmHg | 0 in | - | 21 W/m² | - |
| 1788136934 | 73° F | 54% | 768.2 mmHg | 0 in | - | 26 W/m² | - |
* Rain latest hour (hover to see other rain measurements)
** Current wind speed in m/s (hover to see current wind gust speed)